Lapse_Rate
7.1 6.5 6.0 6.8 7.3 6.9 6.9 7.2 7.3 7.2 7.2 7.1 7.1 7.0 7.2 6.9 6.7 6.5 6.3 6.2 6.3 6.3 6.4 6.4 6.6 6.7 6.4 6.2 5.4 6.9 7.9 7.8 7.3 7.3 6.7 6.5 5.9 6.0 6.5 6.3 6.0 6.5 6.5 6.4 6.3 6.3 6.3
8.4 7.4 7.2 6.8 5.8 7.2 6.9 7.0 7.5 7.3 7.2 7.2 6.9 6.9 7.0 7.2 6.8 6.3 6.3 6.2 6.3 6.5 6.4 6.7 6.9 6.5 6.4 6.5 5.8 6.8 7.2 7.5 7.5 7.0 6.3 6.6 6.1 6.0 6.1 6.2 6.4 6.0 6.2 6.4 6.5 6.4 6.1
8.8 8.6 8.5 7.4 6.9 5.9 7.1 7.0 7.1 7.4 7.3 7.2 7.1 6.8 6.7 6.8 6.9 6.5 6.5 6.5 6.7 6.7 6.6 7.0 7.1 6.9 6.4 5.8 7.1 6.6 6.2 6.9 7.6 7.4 7.0 6.4 6.5 6.5 6.4 6.5 6.4 6.3 6.5 6.5 6.3 6.3 6.4
9.0 8.9 8.8 8.3 7.9 6.8 5.7 6.9 6.9 7.1 7.4 7.4 7.1 6.9 6.6 6.7 7.0 6.7 6.9 7.1 7.0 6.8 6.6 6.9 7.2 6.7 5.5 6.4 6.3 6.5 6.6 6.1 7.2 7.7 7.7 7.7 8.0 6.8 7.1 7.0 6.1 6.5 6.5 6.5 6.5 6.4 6.3
9.2 9.0 8.8 8.9 9.0 8.0 6.8 6.2 6.7 6.9 7.1 7.5 7.1 6.8 6.7 6.4 6.9 6.7 6.9 6.8 7.0 6.8 6.9 7.2 6.6 6.0 5.6 7.5 6.3 6.0 6.4 6.8 7.9 7.8 7.3 8.5 7.7 6.8 6.4 6.5 6.5 6.5 6.5 6.5 6.5 6.3 6.5
9.7 9.6 9.1 9.0 9.1 9.2 8.0 6.7 5.6 6.8 6.8 7.1 7.1 6.5 6.5 6.4 6.7 6.7 6.8 6.7 7.1 6.8 6.8 7.8 8.3 6.9 6.0 6.2 6.7 6.3 6.5 7.1 7.3 7.2 6.8 6.8 6.1 6.5 6.5 6.5 6.5 6.5 6.5 6.5 6.5 6.5 6.5
9.3 9.4 9.3 9.2 9.2 9.0 8.8 7.5 6.4 6.1 6.9 7.5 7.2 7.0 6.8 6.5 6.6 6.7 6.3 5.4 6.0 6.2 6.3 6.4 6.8 6.3 7.1 6.9 7.6 6.9 6.7 7.1 7.3 6.8 6.5 6.3 6.5 6.5 6.5 6.5 6.5 6.5 6.5 6.5 6.5 6.5 6.5
9.1 9.2 9.3 9.1 9.0 8.9 9.4 8.6 7.1 5.4 6.6 7.2 7.3 7.1 6.9 6.5 6.7 6.4 5.1 5.6 6.0 6.6 6.1 5.8 6.2 7.0 7.0 7.8 7.3 7.0 7.0 6.4 6.2 6.5 6.5 6.5 6.5 6.5 6.5 6.5 6.5 6.5 6.5 6.5 6.5 6.5 6.5
9.6 9.6 9.2 9.1 9.0 8.9 8.8 9.0 8.0 6.4 5.8 6.9 7.5 7.0 6.8 6.2 6.8 6.1 5.2 6.4 5.3 6.7 6.2 6.8 6.1 7.2 7.5 7.2 7.1 7.2 7.2 6.7 6.5 6.5 6.5 6.5 6.5 6.5 6.5 6.5 6.5 6.5 6.5 6.5 6.5 6.5 6.5
9.7 9.5 9.6 9.1 9.0 8.8 8.9 8.4 8.8 7.0 5.7 6.0 7.4 7.5 6.9 6.6 6.4 4.7 6.5 6.2 5.4 6.3 6.5 6.5 6.6 7.1 7.2 7.8 6.7 8.1 8.0 7.3 6.5 6.5 6.5 6.5 6.5 6.5 6.5 6.5 6.5 6.5 6.5 6.5 6.5 6.5 6.5
9.5 9.6 9.5 9.3 9.3 8.7 8.6 8.8 8.3 7.8 6.3 5.6 6.9 7.7 6.1 6.1 3.8 5.3 5.7 5.2 4.8 6.4 6.5 6.5 6.7 7.7 7.8 6.9 7.0 6.8 8.3 7.4 6.5 6.5 6.5 6.5 6.5 6.5 6.5 6.5 6.5 6.5 6.5 6.5 6.5 6.5 6.5
9.5 9.5 9.5 9.1 9.2 8.0 8.6 8.7 7.8 8.0 5.7 5.9 5.8 6.9 5.9 6.7 5.0 5.0 4.4 5.2 6.0 6.5 6.5 6.5 6.7 6.5 6.5 6.8 6.8 7.1 7.2 7.5 7.2 6.5 6.5 6.5 6.7 6.5 6.5 6.5 6.5 6.5 6.5 6.5 6.5 6.5 6.5
9.5 9.5 9.5 9.2 9.1 8.8 8.4 8.3 7.2 7.5 6.9 6.1 5.5 6.1 5.7 6.4 4.9 4.6 5.4 5.9 6.5 6.5 6.5 6.5 6.5 6.5 6.5 6.5 6.5 6.5 6.5 6.5 6.5 6.5 6.5 6.5 6.5 6.5 6.5 6.5 6.5 6.5 6.5 6.5 6.5 6.5 6.5
9.4 9.5 9.5 9.6 9.6 8.9 8.3 7.3 6.7 6.9 6.9 5.4 5.1 5.6 6.1 6.3 4.5 5.2 5.7 6.5 6.5 6.5 6.5 6.5 6.5 6.5 6.5 6.5 6.5 6.5 6.5 6.5 6.5 6.5 6.5 6.5 6.5 6.5 6.5 6.5 6.5 6.5 6.5 6.5 6.5 6.5 6.5
9.3 9.5 9.5 9.5 9.5 8.4 7.1 7.2 7.0 7.1 6.8 5.4 4.5 5.4 5.2 5.1 5.8 5.4 6.3 6.5 6.5 6.5 6.5 6.5 6.5 6.5 6.5 6.5 6.5 6.5 6.5 6.5 6.5 6.5 6.5 6.5 6.5 6.5 6.5 6.5 6.5 6.5 6.5 6.5 6.5 6.5 6.5
9.3 9.3 9.4 9.5 9.5 8.9 7.8 7.4 7.4 7.0 6.3 5.9 5.9 5.9 6.0 5.5 6.0 5.9 6.5 6.5 6.5 6.5 6.5 6.5 6.5 6.5 6.5 6.5 6.5 6.5 6.5 6.5 6.5 6.5 6.5 6.5 6.5 6.5 6.5 6.4 6.5 6.5 6.5 6.5 6.5 6.5 6.5
9.4 9.4 9.5 9.5 9.5 9.0 8.0 7.6 6.7 7.0 6.6 5.7 6.1 6.5 5.9 5.4 6.7 6.5 6.5 6.5 6.5 6.4 6.4 6.5 6.5 6.5 6.5 6.5 6.5 6.5 6.5 6.5 6.5 6.5 6.5 6.5 6.5 6.5 6.5 6.5 6.5 6.5 6.5 6.5 6.5 6.5 6.5
9.4 9.4 9.5 9.6 9.5 8.9 7.7 7.8 7.5 7.2 6.1 6.2 6.1 6.5 5.6 5.6 6.5 6.5 6.5 6.5 6.7 6.5 6.6 6.5 6.5 6.5 6.5 6.5 6.5 6.5 6.5 6.5 6.4 6.5 6.5 6.5 6.5 6.5 6.5 6.5 6.5 6.5 6.5 6.5 6.5 6.5 6.5
9.2 9.4 9.5 9.6 9.5 9.1 8.1 7.6 7.7 7.2 7.4 6.1 6.6 6.6 5.8 6.3 6.5 6.5 6.5 6.5 6.5 6.5 6.5 6.5 6.5 6.5 6.5 6.5 6.5 6.5 6.5 6.5 6.0 6.5 6.5 6.5 6.5 6.5 6.5 6.5 6.5 6.5 6.5 6.5 6.5 6.5 6.5
9.2 9.4 9.5 9.6 9.5 9.0 8.2 7.2 7.5 7.3 6.8 5.9 6.7 6.5 6.5 6.4 6.8 6.5 6.5 6.5 6.5 6.8 6.5 6.6 6.5 6.5 6.5 6.5 6.5 6.5 6.5 6.5 6.5 6.5 6.8 6.7 6.5 6.5 6.5 6.5 6.5 6.5 6.5 6.5 6.5 6.5 6.5
9.2 9.4 9.6 9.6 9.6 9.0 8.5 7.6 7.6 7.3 5.7 5.6 6.4 6.6 6.7 6.5 6.5 6.5 6.5 6.5 6.5 6.5 6.6 6.7 6.5 6.5 6.5 6.5 6.5 6.5 6.5 6.5 6.5 6.7 6.5 6.5 6.5 6.5 6.5 6.5 6.5 6.5 6.5 6.5 6.5 6.5 6.5
9.2 9.3 9.5 9.6 9.6 9.1 8.4 7.9 7.7 7.1 5.5 6.2 6.1 6.5 6.3 6.4 6.7 6.5 6.5 6.5 6.5 6.5 6.5 6.5 6.5 6.5 6.5 6.5 6.5 6.5 6.5 6.5 6.5 6.5 6.5 6.5 6.5 6.5 6.5 6.5 6.5 6.5 6.5 6.5 6.5 6.5 6.5
9.2 9.4 9.6 9.6 9.5 9.2 8.3 8.0 7.6 7.2 6.2 5.9 5.0 5.2 5.5 6.5 6.5 6.5 6.5 6.5 6.5 6.5 6.6 6.6 6.5 6.5 6.5 6.5 6.3 5.6 5.4 5.8 6.5 6.5 6.5 6.5 6.5 6.5 6.5 6.5 6.5 6.5 6.5 6.5 6.5 6.5 6.5
9.2 9.4 9.4 9.6 9.5 9.0 8.2 8.1 7.6 7.2 6.1 5.9 4.9 4.1 5.9 6.5 6.5 6.5 6.5 6.5 6.5 6.5 6.5 6.6 6.8 6.5 6.6 5.4 5.3 5.8 5.9 6.2 6.4 6.5 6.5 6.5 6.5 6.5 6.5 6.5 6.5 6.5 6.5 6.5 6.5 6.5 6.5
9.2 9.3 9.4 9.5 9.7 9.2 8.6 8.3 7.7 7.0 5.3 5.1 3.6 4.1 5.1 6.5 6.5 6.5 6.5 6.5 6.2 6.2 6.5 6.5 6.7 6.6 5.6 6.8 6.5 6.5 6.5 6.5 6.5 6.5 6.5 6.5 6.5 6.5 6.5 6.5 6.5 6.5 6.5 6.5 6.5 6.5 6.5
9.3 9.2 9.3 9.4 9.7 9.1 8.5 8.4 7.8 6.8 5.8 4.6 3.8 3.8 4.6 6.4 6.5 6.7 6.5 6.4 6.5 6.5 6.5 6.5 5.5 5.3 5.8 6.5 6.5 6.5 6.5 6.5 6.5 6.5 6.5 6.5 6.5 6.5 6.5 6.5 6.5 6.5 6.5 6.4 6.5 6.5 6.5
9.2 8.8 9.4 9.5 9.6 9.2 8.7 8.1 8.1 7.3 6.0 4.9 4.5 5.2 5.1 6.1 6.2 6.4 6.5 6.4 5.8 6.4 6.5 6.5 6.6 6.4 5.8 6.5 6.5 6.5 6.5 6.5 6.5 6.5 6.5 6.5 6.5 6.5 6.5 6.5 6.5 6.5 6.5 6.1 6.5 6.5 6.4
9.2 9.1 9.2 9.5 9.6 9.3 8.6 8.1 8.4 7.2 6.1 4.7 4.5 4.7 5.9 6.0 6.2 7.0 6.1 5.7 5.5 6.1 6.5 6.5 6.5 6.4 6.5 6.5 6.5 6.5 6.5 6.5 6.5 6.5 6.5 6.5 6.5 6.5 6.5 6.5 6.5 6.3 6.3 6.5 6.5 5.6 5.4
9.2 8.9 9.0 9.4 9.4 9.3 8.4 8.3 8.2 7.3 6.1 4.9 5.0 4.7 5.0 6.1 6.2 5.6 6.1 6.5 6.7 6.4 6.0 6.0 6.5 6.5 6.4 6.5 6.5 6.5 6.5 6.5 6.5 6.5 6.5 6.5 6.5 6.5 6.5 6.5 6.5 5.8 6.3 5.8 4.4 4.4 5.2
Wind_Speed
30 26 25 22 20 19 18 17 15 14 17 17 15 13 12 11 10 7 5 3 2 1 1 2 3 1 1 3 7 4 1 5 3 8 9 6 5 4 5 4 4 6 5 10 9 12 15
28 29 29 28 25 21 19 18 17 15 16 18 16 15 14 12 10 9 7 5 4 2 1 1 1 1 1 6 6 7 6 2 1 3 5 7 6 6 4 6 6 5 6 7 10 13 9
28 31 30 32 32 29 21 19 18 17 17 18 18 18 16 14 12 10 9 7 6 4 2 2 2 2 3 11 3 2 4 5 4 5 3 6 6 2 1 4 4 5 8 9 7 4 5
29 29 30 30 31 32 29 21 18 18 18 18 17 20 18 15 14 13 11 9 6 5 3 4 3 1 6 5 18 9 4 5 5 4 3 4 5 6 4 5 6 3 3 4 4 8 5
29 29 29 30 32 31 30 28 22 20 20 21 20 18 19 17 15 13 13 9 7 5 4 3 2 2 7 6 3 8 5 4 3 3 4 7 2 3 3 3 4 3 5 6 4 6 5
29 30 32 31 30 31 31 33 28 23 22 21 21 18 19 18 16 14 11 10 6 1 3 3 2 1 4 4 3 4 5 6 3 1 3 3 2 2 2 5 14 10 6 6 5 4 7
32 32 32 33 32 30 33 32 32 26 25 23 21 23 21 19 17 14 10 5 2 2 5 7 7 3 2 2 3 3 5 4 2 1 5 1 3 10 13 13 7 5 6 7 4 4 7
29 30 31 32 32 31 31 30 30 31 25 24 22 22 21 20 18 18 8 4 4 3 2 12 10 12 7 4 2 3 8 6 7 11 5 4 12 12 8 10 9 11 12 15 8 9 10
33 32 31 32 32 32 31 31 29 25 24 24 24 22 24 21 19 10 5 6 6 2 1 4 5 6 6 7 6 6 13 6 6 12 14 17 6 13 13 12 10 15 17 11 9 10 18
34 34 29 33 34 31 31 32 29 22 23 22 25 23 24 21 8 4 6 6 9 3 2 4 3 2 3 4 4 14 14 9 6 15 12 13 15 8 12 15 11 16 10 13 11 7 7
34 33 34 34 34 32 31 30 30 24 22 25 21 23 30 25 7 7 6 14 8 1 3 5 4 3 3 6 3 1 10 14 13 9 7 8 8 19 20 17 14 9 8 9 8 8 8
36 36 31 34 35 32 29 35 23 28 21 26 14 28 32 7 4 5 13 13 4 3 7 6 4 4 3 5 3 2 4 8 1 15 16 8 1 8 9 14 14 3 7 5 3 4 9
35 35 33 34 36 35 30 31 33 40 18 24 15 32 24 10 7 17 12 6 3 4 2 6 5 5 7 7 7 8 8 7 5 7 8 5 17 5 3 5 11 11 4 3 3 6 10
36 37 35 35 36 35 36 34 49 40 16 21 23 33 20 7 23 18 4 2 3 4 5 3 4 8 7 7 6 8 5 8 14 7 2 8 4 16 9 11 5 15 14 4 6 3 5
35 34 36 35 36 35 38 51 28 14 15 19 27 12 8 9 24 8 7 3 6 5 6 9 5 6 6 6 4 8 8 9 9 15 8 5 4 4 7 9 12 4 9 20 6 5 5
33 34 36 36 36 36 37 42 18 14 10 20 4 8 9 21 22 7 5 4 4 4 6 5 7 9 7 6 9 7 7 5 9 16 9 6 3 5 5 6 7 8 5 5 4 6 5
33 33 34 35 35 36 41 35 13 11 23 27 7 8 12 22 10 6 4 5 4 5 6 7 6 5 7 5 8 5 6 5 11 14 19 6 5 2 4 9 12 6 11 7 7 7 3
33 33 35 35 33 35 39 30 19 20 23 21 2 4 13 14 5 4 3 5 4 5 2 3 4 7 8 9 7 7 9 8 11 7 12 11 4 8 18 4 10 19 20 19 6 7 9
33 33 33 34 31 32 36 25 24 20 23 3 8 3 10 11 5 6 4 4 4 6 8 7 9 10 11 6 5 10 7 9 8 12 9 10 5 4 4 8 12 11 19 20 15 5 6
30 31 32 33 31 32 35 29 30 27 27 5 3 5 3 3 4 6 10 6 6 6 9 8 5 13 7 7 10 3 7 4 12 8 14 12 3 6 9 3 9 8 23 22 21 10 8
28 29 30 31 31 32 34 29 32 26 31 1 2 3 5 8 7 10 11 6 10 7 7 10 4 11 7 6 8 10 8 2 6 11 10 8 6 9 15 18 12 17 24 22 22 6 8
27 28 29 30 30 33 32 29 31 31 31 2 2 3 3 8 10 7 12 10 11 8 7 6 9 9 16 11 6 1 5 5 6 12 9 4 5 4 6 10 16 16 20 17 14 5 5
27 28 27 29 28 31 31 29 28 28 19 3 2 3 4 10 10 8 5 7 10 6 9 12 14 11 8 16 14 9 7 8 9 11 9 4 3 4 5 5 8 6 18 20 14 12 15
27 26 28 28 27 31 33 32 27 24 17 5 2 3 3 5 8 9 9 14 14 16 14 6 14 12 4 4 3 4 5 3 9 10 11 6 6 4 1 1 3 3 19 24 22 21 25
28 24 26 27 26 29 31 30 25 28 27 4 2 3 2 2 4 7 7 3 7 5 15 13 5 5 4 2 3 3 3 4 2 5 9 8 3 3 2 2 5 2 5 8 15 10 7
27 25 24 25 26 27 29 30 28 28 26 5 2 2 3 3 5 4 5 6 3 2 1 3 2 2 4 3 3 5 4 4 2 3 1 2 3 2 3 2 2 3 1 1 3 3 3
26 26 24 24 26 28 29 29 27 26 24 10 1 0 3 2 2 3 2 2 3 2 1 2 2 3 2 4 3 3 4 2 5 5 4 3 2 4 2 3 7 5 3 1 3 4 2
25 24 22 23 24 26 28 29 25 24 23 9 1 2 3 1 2 3 5 4 1 2 2 2 2 2 3 4 3 3 3 5 2 2 4 5 5 3 2 1 6 3 4 2 3 2 2
25 24 21 22 23 23 26 29 27 26 24 16 2 1 2 1 2 2 3 3 5 5 3 3 2 3 3 3 3 2 2 2 3 3 2 3 5 5 7 5 2 3 2 2 1 3 2
Wind_Direction
345 345 345 293 282 285 284 277 275 265 251 238 222 229 233 233 232 221 224 219 231 205 1 6 33 233 188 198 244 268 20 52 76 171 190 192 195 172 198 218 281 249 266 254 261 254 268
334 348 339 339 327 275 277 279 271 268 254 243 228 222 226 231 235 214 217 214 218 222 236 309 318 187 199 242 232 252 255 347 211 139 190 187 213 212 252 230 240 289 302 289 262 263 259
339 338 328 335 340 333 271 269 271 263 258 243 229 222 216 219 223 217 215 215 216 213 206 227 201 249 254 237 214 56 18 229 202 191 198 212 230 282 90 289 318 274 300 300 245 242 272
344 340 337 331 328 333 329 275 268 258 258 243 236 226 207 211 215 216 215 215 213 189 211 218 182 160 248 250 243 281 288 308 222 234 195 236 214 224 221 294 335 341 267 248 199 195 222
342 340 334 330 325 328 336 324 267 257 252 241 228 230 209 201 208 212 208 209 173 186 230 209 140 164 263 302 221 220 180 217 177 213 241 245 225 217 345 218 275 240 261 260 281 209 220
339 335 333 328 327 321 322 324 316 263 254 238 230 215 205 196 199 204 213 168 157 146 245 235 239 231 256 231 207 185 157 175 233 49 306 187 130 174 140 195 227 229 243 251 224 322 217
341 339 332 329 325 326 318 329 316 294 258 238 227 217 205 193 191 184 135 104 99 228 228 201 184 222 256 213 126 194 158 116 155 145 196 225 198 218 224 223 248 298 271 257 357 318 313
335 332 332 327 324 321 318 315 313 320 258 246 226 218 205 188 182 165 140 187 206 153 254 235 240 233 273 349 270 199 125 165 179 222 158 258 239 227 232 230 238 252 267 269 288 260 271
336 330 329 330 323 320 316 314 314 311 301 256 233 215 191 178 168 160 179 201 146 115 237 235 224 222 227 209 224 213 164 181 195 217 215 226 236 231 217 225 224 238 242 257 264 302 286
336 334 325 327 324 320 315 312 309 302 309 290 248 214 170 148 137 144 204 171 137 102 272 206 219 236 201 175 255 215 193 176 220 216 223 240 228 248 207 223 217 244 210 241 259 275 263
337 330 332 325 325 319 318 316 304 292 292 304 258 198 152 156 143 174 188 151 124 65 348 166 155 340 153 190 141 263 209 202 212 196 177 211 208 221 238 234 212 244 218 225 237 252 268
333 329 331 325 326 316 321 318 325 302 293 294 289 180 160 156 125 141 129 133 99 47 251 167 129 178 174 199 201 112 172 229 354 227 229 221 69 213 218 226 214 143 229 269 301 286 243
332 336 328 325 323 328 326 320 321 318 277 287 290 170 162 167 163 146 138 127 100 167 188 164 171 187 199 197 210 191 185 211 217 203 211 197 225 264 232 179 210 211 157 258 225 202 240
332 333 328 327 327 331 329 321 312 299 267 304 307 166 176 159 139 144 145 130 183 192 167 124 142 182 196 196 218 207 225 222 233 218 271 207 220 197 195 219 175 199 196 202 207 214 255
330 331 330 327 327 339 334 313 300 275 261 295 303 167 163 154 149 144 155 187 211 191 141 158 151 198 211 213 220 205 227 232 227 201 203 202 248 178 203 192 187 192 205 218 310 253 257
328 331 330 330 333 337 329 323 296 288 295 312 245 169 168 154 147 141 176 231 207 122 121 142 191 182 197 190 191 195 212 221 219 191 199 192 250 202 155 174 232 223 141 147 194 236 234
329 331 329 334 336 337 335 333 278 305 316 304 276 164 152 148 143 163 194 217 190 149 138 182 198 213 215 182 194 190 244 243 206 190 194 175 185 156 142 195 197 195 228 232 174 229 277
331 333 331 336 336 337 334 341 338 334 334 290 158 154 155 148 146 164 183 182 155 145 173 176 221 220 206 187 189 210 223 231 189 158 179 203 199 218 225 188 204 220 218 215 208 203 238
328 331 332 335 335 334 337 349 341 334 306 253 147 113 158 161 153 179 159 185 155 169 186 206 212 214 208 213 222 196 215 213 171 174 188 171 215 249 251 198 197 212 207 199 229 136 234
328 331 333 334 335 338 341 355 343 333 322 280 106 144 123 191 149 139 186 197 192 202 228 208 219 225 208 229 234 262 228 226 180 164 154 169 237 228 237 7 145 182 198 194 211 223 219
329 329 334 335 335 339 343 352 340 335 340 319 138 125 127 178 174 174 184 190 192 202 210 205 232 231 213 227 222 236 234 134 176 160 159 178 243 230 247 243 242 185 190 196 214 221 210
332 329 335 337 338 339 345 347 343 349 348 20 160 137 114 162 156 155 178 196 209 194 194 191 223 223 216 231 207 190 210 190 195 170 184 188 272 247 277 217 202 201 182 184 184 154 247
333 330 336 337 339 339 342 346 350 346 356 238 238 40 133 150 173 180 201 209 220 217 208 215 213 248 243 225 245 247 246 248 166 162 183 227 270 316 355 133 143 153 185 186 195 198 207
335 331 335 338 340 339 345 346 348 336 339 299 229 123 93 156 165 197 187 207 226 229 225 214 211 227 228 338 259 250 264 60 171 168 176 242 236 262 299 79 50 180 188 186 195 214 208
335 335 334 337 336 338 342 340 345 341 340 292 281 97 110 101 171 174 210 237 295 286 223 243 209 216 173 261 217 171 336 342 271 205 190 198 259 308 1 289 287 56 93 166 192 226 218
333 336 336 334 334 335 340 342 349 342 331 326 284 58 96 113 201 184 176 201 215 167 209 236 304 250 195 203 210 183 205 230 216 291 237 272 239 190 16 4 28 241 99 153 171 257 216
334 336 334 337 333 337 337 342 345 337 335 334 165 336 93 148 232 132 161 188 125 139 174 293 264 204 221 181 198 149 213 202 205 187 173 159 178 188 342 310 288 259 299 330 123 243 284
329 334 331 333 331 335 334 337 339 339 337 334 122 346 94 82 276 168 150 167 145 160 167 189 244 215 151 165 211 173 193 207 193 187 188 171 155 168 132 279 290 346 347 163 210 26 11
330 329 330 330 330 333 332 335 341 341 337 341 92 42 92 148 299 327 270 236 197 185 159 173 288 225 192 146 211 157 214 167 172 225 190 213 175 178 188 211 256 323 294 346 137 124 89